Reidsville, NC

6:54 PM EDT on June 27, 2017 (GMT -0400)
Reidsville

Weather History for KSIF - November, 2013

Change the Weather History Date:

Tuesday, November 19, 2013

  Actual Average (KGSO) Record (KGSO)
Temperature  
Mean Temperature 44 °F -  
Max Temperature 54 °F 59 °F 80 °F (1906)
Min Temperature 35 °F 38 °F 16 °F (2014)
Degree Days  
Heating Degree Days 20    
Moisture  
Dew Point 27 °F    
Average Humidity 52    
Maximum Humidity 81    
Minimum Humidity 31    
Precipitation  
Precipitation 0.00 in - - ()
Sea Level Pressure  
Sea Level Pressure 30.16 in    
Wind  
Wind Speed 3 mph (North)    
Max Wind Speed 8 mph    
Max Gust Speed -    
Visibility 10 miles    
Events      
Averages and records for this station are not official NWS values.
T = Trace of Precipitation, MM = Missing Value Source: NWS Daily Summary

Daily Weather History Graph

Daily Weather History Graph

Search for Another Location

Airport or City:

Trip Planner

Search our weather history database for the weather conditions in past years. The results will help you decide how hot, cold, wet, or windy it might be!

Date:

Astronomy

Nov. 19, 2013 Rise Set
Actual Time 7:01 AM EST 5:08 PM EST
Civil Twilight 6:33 AM EST 5:36 PM EST
Nautical Twilight 6:02 AM EST 6:07 PM EST
Astronomical Twilight 5:31 AM EST 6:38 PM EST
Moon 6:58 PM EST (11/19) 8:38 AM EST (11/19)
Length of Visible Light 11h 02m
Length of Day
10h 07m
Waning Gibbous, 96% of the Moon is Illuminated
Nov 19
Waning Gibbous
Nov 25
Last Quarter
Dec 2
New
Dec 9
First Quarter
Dec 17
Full

Hourly Weather History & Observations

Time (EST) Temp. Windchill Dew Point Humidity Pressure Visibility Wind Dir Wind Speed Gust Speed Precip Events Conditions
12:15 AM 50.0 °F - 25.7 °F 39% 30.02 in 10.0 mi NNW 5.8 mph - N/A   Clear
12:35 AM 50.4 °F - 25.5 °F 38% 30.02 in 10.0 mi NW 4.6 mph - N/A   Clear
12:55 AM 49.6 °F - 26.1 °F 40% 30.02 in 10.0 mi NW 3.5 mph - N/A   Clear
1:15 AM 48.2 °F - 26.2 °F 42% 30.01 in 10.0 mi Calm Calm - N/A   Clear
1:35 AM 47.7 °F - 26.8 °F 44% 30.02 in 10.0 mi NNW 3.5 mph - N/A   Clear
1:55 AM 46.4 °F - 27.1 °F 47% 30.03 in 10.0 mi Calm Calm - N/A   Clear
2:15 AM 43.7 °F 42.1 °F 27.9 °F 54% 30.03 in 10.0 mi NW 3.5 mph - N/A   Clear
2:35 AM 42.1 °F 40.2 °F 28.0 °F 58% 30.03 in 10.0 mi NNW 3.5 mph - N/A   Clear
2:55 AM 45.5 °F - 27.5 °F 49% 30.03 in 10.0 mi Calm Calm - N/A   Clear
3:15 AM 43.0 °F - 27.9 °F 55% 30.03 in 10.0 mi Calm Calm - N/A   Clear
3:35 AM 43.3 °F - 28.0 °F 55% 30.04 in 10.0 mi Calm Calm - N/A   Clear
3:55 AM 45.9 °F 42.9 °F 27.1 °F 48% 30.04 in 10.0 mi NNW 5.8 mph - N/A   Clear
4:15 AM 45.1 °F 43.7 °F 27.1 °F 49% 30.05 in 10.0 mi NNW 3.5 mph - N/A   Clear
4:35 AM 44.4 °F - 27.1 °F 51% 30.06 in 10.0 mi Calm Calm - N/A   Clear
4:55 AM 43.3 °F 40.7 °F 26.6 °F 52% 30.07 in 10.0 mi North 4.6 mph - N/A   Clear
5:15 AM 43.7 °F 40.3 °F 25.5 °F 49% 30.07 in 10.0 mi North 5.8 mph - N/A   Clear
5:35 AM 43.2 °F 39.0 °F 24.8 °F 48% 30.08 in 10.0 mi North 6.9 mph - N/A   Clear
5:55 AM 43.0 °F 41.3 °F 24.6 °F 48% 30.10 in 10.0 mi NNW 3.5 mph - N/A   Clear
6:15 AM 39.9 °F 37.8 °F 25.3 °F 56% 30.11 in 10.0 mi NNW 3.5 mph - N/A   Clear
6:35 AM 41.2 °F - 25.5 °F 54% 30.12 in 10.0 mi Calm Calm - N/A   Clear
6:55 AM 40.3 °F - 25.7 °F 56% 30.13 in 10.0 mi Calm Calm - N/A   Clear
7:15 AM 39.7 °F - 26.1 °F 58% 30.14 in 10.0 mi Calm Calm - N/A   Clear
7:35 AM 40.3 °F 38.2 °F 26.4 °F 58% 30.15 in 10.0 mi NNW 3.5 mph - N/A   Clear
7:55 AM 41.9 °F - 26.6 °F 55% 30.16 in 10.0 mi Calm Calm - N/A   Clear
8:15 AM 43.2 °F 40.5 °F 27.7 °F 54% 30.16 in 10.0 mi North 4.6 mph - N/A   Clear
8:35 AM 44.2 °F 40.3 °F 27.5 °F 52% 30.17 in 10.0 mi NNW 6.9 mph - N/A   Clear
8:55 AM 45.5 °F 43.2 °F 27.9 °F 50% 30.18 in 10.0 mi North 4.6 mph - N/A   Clear
9:15 AM 46.4 °F 45.2 °F 27.5 °F 48% 30.19 in 10.0 mi ENE 3.5 mph - N/A   Clear
9:35 AM 46.6 °F - 27.0 °F 46% 30.19 in 10.0 mi North 6.9 mph - N/A   Clear
9:55 AM 47.5 °F - 26.4 °F 44% 30.20 in 10.0 mi NNE 4.6 mph - N/A   Clear
10:15 AM 47.8 °F - 25.3 °F 41% 30.20 in 10.0 mi North 6.9 mph - N/A   Clear
10:35 AM 48.0 °F - 25.9 °F 42% 30.21 in 10.0 mi North 4.6 mph - N/A   Clear
10:55 AM 48.7 °F - 26.2 °F 42% 30.21 in 10.0 mi NNE 3.5 mph - N/A   Clear
11:15 AM 49.1 °F - 25.3 °F 40% 30.20 in 10.0 mi East 3.5 mph - N/A   Clear
11:35 AM 50.0 °F - 24.8 °F 37% 30.20 in 10.0 mi NE 5.8 mph - N/A   Clear
11:55 AM 50.4 °F - 25.0 °F 37% 30.19 in 10.0 mi NNE 5.8 mph - N/A   Clear
12:15 PM 52.0 °F - 25.3 °F 36% 30.18 in 10.0 mi NNW 6.9 mph - N/A   Clear
12:35 PM 52.7 °F - 24.6 °F 34% 30.17 in 10.0 mi NNW 8.1 mph - N/A   Clear
12:55 PM 51.6 °F - 24.6 °F 35% 30.17 in 10.0 mi North 5.8 mph - N/A   Clear
1:15 PM 52.7 °F - 23.7 °F 32% 30.17 in 10.0 mi North 6.9 mph - N/A   Clear
1:35 PM 52.7 °F - 23.4 °F 32% 30.16 in 10.0 mi North 5.8 mph - N/A   Clear
1:55 PM 52.7 °F - 22.5 °F 31% 30.15 in 10.0 mi NNE 5.8 mph - N/A   Clear
2:15 PM 53.2 °F - 23.0 °F 31% 30.14 in 10.0 mi NNE 3.5 mph - N/A   Clear
2:35 PM 52.5 °F - 23.2 °F 32% 30.14 in 10.0 mi North 3.5 mph - N/A   Clear
2:55 PM 54.1 °F - 24.1 °F 31% 30.15 in 10.0 mi NNE 5.8 mph - N/A   Clear
3:15 PM 53.8 °F - 23.5 °F 31% 30.16 in 10.0 mi NNE 6.9 mph - N/A   Clear
3:35 PM 52.7 °F - 23.7 °F 32% 30.16 in 10.0 mi NE 5.8 mph - N/A   Clear
3:55 PM 52.2 °F - 24.4 °F 34% 30.17 in 10.0 mi NE 6.9 mph - N/A   Clear
4:15 PM 51.4 °F - 23.9 °F 34% 30.17 in 10.0 mi NE 4.6 mph - N/A   Clear
4:35 PM 50.4 °F - 25.3 °F 38% 30.18 in 10.0 mi Calm Calm - N/A   Clear
4:55 PM 47.7 °F - 28.8 °F 48% 30.19 in 10.0 mi Calm Calm - N/A   Clear
5:15 PM 43.9 °F - 30.4 °F 59% 30.19 in 10.0 mi Calm Calm - N/A   Clear
5:35 PM 40.5 °F - 30.7 °F 68% 30.20 in 10.0 mi Calm Calm - N/A   Clear
5:55 PM 37.6 °F - 30.9 °F 77% 30.21 in 10.0 mi Calm Calm - N/A   Clear
6:15 PM 36.5 °F - 29.7 °F 76% 30.22 in 10.0 mi Calm Calm - N/A   Clear
6:35 PM 35.4 °F - 30.0 °F 81% 30.22 in 10.0 mi Calm Calm - N/A   Clear
6:55 PM 36.0 °F - 30.4 °F 80% 30.22 in 10.0 mi Calm Calm - N/A   Clear
7:15 PM 37.0 °F - 28.8 °F 72% 30.23 in 10.0 mi Calm Calm - N/A   Clear
7:35 PM 37.0 °F - 30.0 °F 76% 30.24 in 10.0 mi Calm Calm - N/A   Clear
7:55 PM 36.7 °F - 30.6 °F 78% 30.24 in 10.0 mi Calm Calm - N/A   Clear
8:15 PM 36.0 °F 33.3 °F 30.0 °F 79% 30.23 in 10.0 mi NE 3.5 mph - N/A   Clear
8:35 PM 38.5 °F - 29.3 °F 70% 30.25 in 10.0 mi Calm Calm - N/A   Clear
8:55 PM 40.3 °F - 28.2 °F 62% 30.26 in 10.0 mi Calm Calm - N/A   Clear
9:15 PM 38.7 °F - 28.9 °F 68% 30.27 in 10.0 mi Calm Calm - N/A   Clear
9:35 PM 38.3 °F 35.9 °F 29.3 °F 70% 30.28 in 10.0 mi NNE 3.5 mph - N/A   Clear
9:55 PM 40.1 °F 38.0 °F 28.4 °F 63% 30.28 in 10.0 mi NNE 3.5 mph - N/A   Clear
10:15 PM 40.3 °F - 28.4 °F 63% 30.29 in 10.0 mi Calm Calm - N/A   Clear
10:55 PM 36.7 °F - 29.1 °F 74% 30.32 in 10.0 mi Calm Calm - N/A   Clear
11:15 PM 35.2 °F 32.4 °F 29.7 °F 80% 30.31 in 10.0 mi NNE 3.5 mph - N/A   Clear
11:35 PM 36.7 °F - 30.0 °F 77% 30.32 in 10.0 mi Calm Calm - N/A   Clear
11:55 PM 35.8 °F - 29.5 °F 78% 30.33 in 10.0 mi Calm Calm - N/A   Clear